When you browse on this site, cookies collect data to enhance your experience and personalize the content and advertising you see.
Visit our Privacy Policy to learn more. By continuing to use the site, you agree to this use of cookies and data.
  • In United Kingdom
  • List of Countries
  • For 7 days
  • Water Temperature
  • Weather Map
  • Weather Widgets
  • user-avatar
    Login

    Hourly Weather Mateszalka

    Today, 11 December, Wednesday

    Time Temperature Precipitation Wind Pressure Humidity
    00:00 +1°C° 0 mm 6 mps 755 mmHg 72%
    01:00 +1°C° 0 mm 5 mps 755 mmHg 75%
    02:00 +1°C° 0.1 mm 5 mps 755 mmHg 78%
    03:00 0°C° 0.1 mm 4 mps 754 mmHg 80%
    04:00 +1°C° 0.1 mm 3 mps 754 mmHg 83%
    05:00 +1°C° 0.1 mm 3 mps 754 mmHg 85%
    06:00 +1°C° 0.1 mm 3 mps 754 mmHg 86%
    07:00 +1°C° 0 mm 3 mps 754 mmHg 86%
    08:00 +1°C° 0.3 mm 3 mps 754 mmHg 88%
    09:00 +1°C° 0.3 mm 3 mps 754 mmHg 90%
    10:00 +2°C° 0.3 mm 2 mps 753 mmHg 92%
    11:00 +2°C° 0 mm 2 mps 753 mmHg 92%
    12:00 +3°C° 0 mm 1 mps 753 mmHg 91%
    13:00 +4°C° 0 mm 1 mps 752 mmHg 90%
    14:00 +4°C° 0.1 mm 1 mps 752 mmHg 91%
    15:00 +3°C° 0.1 mm 1 mps 751 mmHg 92%
    16:00 +3°C° 0.1 mm 1 mps 751 mmHg 94%
    17:00 +3°C° 0.1 mm 1 mps 751 mmHg 94%
    18:00 +3°C° 0.1 mm 0 mps 751 mmHg 94%
    19:00 +3°C° 0.1 mm 0 mps 751 mmHg 95%
    20:00 +3°C° 0 mm 0 mps 751 mmHg 94%
    21:00 +3°C° 0 mm 0 mps 750 mmHg 93%
    22:00 +4°C° 0 mm 1 mps 750 mmHg 92%
    23:00 +4°C° 0 mm 1 mps 750 mmHg 92%

    Tomorrow, 12 December, Thursday

    Time Temperature Precipitation Wind Pressure Humidity
    00:00 +4°C° 0 mm 1 mps 750 mmHg 92%
    01:00 +3°C° 0 mm 1 mps 749 mmHg 92%
    02:00 +3°C° 0 mm 1 mps 749 mmHg 91%
    03:00 +3°C° 0 mm 1 mps 748 mmHg 91%
    04:00 +2°C° 0 mm 2 mps 747 mmHg 90%
    05:00 +2°C° 0 mm 2 mps 747 mmHg 90%
    06:00 +2°C° 0 mm 2 mps 747 mmHg 90%
    07:00 +1°C° 0 mm 3 mps 747 mmHg 90%
    08:00 +2°C° 0 mm 3 mps 747 mmHg 85%
    09:00 +3°C° 0 mm 3 mps 747 mmHg 81%
    10:00 +4°C° 0 mm 3 mps 746 mmHg 76%
    11:00 +5°C° 0 mm 3 mps 746 mmHg 72%
    12:00 +7°C° 0 mm 3 mps 746 mmHg 68%
    13:00 +8°C° 0 mm 3 mps 746 mmHg 64%
    14:00 +7°C° 0 mm 2 mps 745 mmHg 68%
    15:00 +6°C° 0 mm 2 mps 745 mmHg 72%
    16:00 +5°C° 0 mm 2 mps 744 mmHg 76%
    17:00 +5°C° 0 mm 2 mps 744 mmHg 78%
    18:00 +4°C° 0 mm 2 mps 744 mmHg 79%
    19:00 +4°C° 0 mm 2 mps 744 mmHg 80%
    20:00 +4°C° 0 mm 2 mps 744 mmHg 81%
    21:00 +4°C° 0 mm 2 mps 743 mmHg 82%
    22:00 +4°C° 0 mm 2 mps 743 mmHg 83%
    23:00 +4°C° 0 mm 2 mps 743 mmHg 83%

    Day after tomorrow, 13 December, Friday

    Time Temperature Precipitation Wind Pressure Humidity
    00:00 +4°C° 0 mm 2 mps 742 mmHg 82%
    01:00 +4°C° 0 mm 2 mps 742 mmHg 82%
    02:00 +4°C° 0 mm 2 mps 741 mmHg 82%
    03:00 +3°C° 0 mm 3 mps 741 mmHg 81%
    04:00 +3°C° 0 mm 3 mps 740 mmHg 81%
    05:00 +3°C° 0 mm 3 mps 740 mmHg 81%
    06:00 +3°C° 0 mm 3 mps 740 mmHg 82%
    07:00 +3°C° 0 mm 3 mps 739 mmHg 82%
    08:00 +4°C° 0 mm 3 mps 739 mmHg 80%
    09:00 +4°C° 0 mm 4 mps 738 mmHg 78%
    10:00 +5°C° 0 mm 5 mps 738 mmHg 75%
    11:00 +6°C° 0 mm 5 mps 738 mmHg 74%
    12:00 +6°C° 0 mm 5 mps 737 mmHg 73%
    13:00 +7°C° 0 mm 5 mps 737 mmHg 72%
    14:00 +6°C° 0 mm 5 mps 736 mmHg 74%
    15:00 +6°C° 0 mm 4 mps 736 mmHg 75%
    16:00 +6°C° 0 mm 4 mps 736 mmHg 77%
    17:00 +6°C° 0.2 mm 4 mps 736 mmHg 79%
    18:00 +7°C° 0.2 mm 3 mps 736 mmHg 80%
    19:00 +7°C° 0.2 mm 3 mps 736 mmHg 82%
    20:00 +7°C° 0.1 mm 3 mps 736 mmHg 81%
    21:00 +5°C° 0.1 mm 3 mps 736 mmHg 81%
    22:00 +5°C° 0.1 mm 4 mps 737 mmHg 81%
    23:00 +5°C° 0 mm 3 mps 737 mmHg 82%

    14 December, Saturday

    Time Temperature Precipitation Wind Pressure Humidity
    00:00 +5°C° 0 mm 3 mps 737 mmHg 83%
    01:00 +4°C° 0 mm 3 mps 737 mmHg 84%
    02:00 +5°C° 0 mm 2 mps 738 mmHg 84%
    03:00 +5°C° 0 mm 2 mps 738 mmHg 84%
    04:00 +6°C° 0 mm 1 mps 738 mmHg 83%
    05:00 +5°C° 0 mm 2 mps 739 mmHg 85%
    06:00 +5°C° 0 mm 2 mps 739 mmHg 86%
    07:00 +4°C° 0 mm 2 mps 740 mmHg 87%
    08:00 +6°C° 0 mm 1 mps 740 mmHg 84%
    09:00 +7°C° 0 mm 1 mps 741 mmHg 81%
    10:00 +7°C° 0 mm 1 mps 742 mmHg 78%
    11:00 +8°C° 0 mm 1 mps 742 mmHg 77%
    12:00 +7°C° 0 mm 2 mps 742 mmHg 76%
    13:00 +8°C° 0 mm 2 mps 743 mmHg 75%
    14:00 +7°C° 0 mm 2 mps 743 mmHg 78%
    15:00 +7°C° 0 mm 2 mps 744 mmHg 82%
    16:00 +6°C° 0 mm 2 mps 745 mmHg 86%
    17:00 +5°C° 0 mm 2 mps 745 mmHg 87%
    18:00 +5°C° 0 mm 2 mps 746 mmHg 87%
    19:00 +3°C° 0 mm 3 mps 746 mmHg 88%
    20:00 +3°C° 0 mm 3 mps 747 mmHg 86%
    21:00 +3°C° 0 mm 3 mps 748 mmHg 84%
    22:00 +2°C° 0 mm 3 mps 748 mmHg 82%
    23:00 +2°C° 0 mm 3 mps 749 mmHg 83%

    15 December, Sunday

    Time Temperature Precipitation Wind Pressure Humidity
    00:00 +2°C° 0 mm 3 mps 749 mmHg 83%
    01:00 +2°C° 0 mm 3 mps 750 mmHg 83%
    02:00 +2°C° 0 mm 3 mps 750 mmHg 84%
    03:00 +1°C° 0 mm 3 mps 751 mmHg 86%
    04:00 +1°C° 0 mm 3 mps 751 mmHg 88%
    05:00 +1°C° 0 mm 3 mps 751 mmHg 89%
    06:00 +2°C° 0 mm 2 mps 751 mmHg 91%
    07:00 +2°C° 0 mm 2 mps 752 mmHg 92%
    08:00 +3°C° 0 mm 2 mps 752 mmHg 89%
    09:00 +4°C° 0 mm 2 mps 752 mmHg 87%
    10:00 +5°C° 0 mm 2 mps 753 mmHg 84%
    11:00 +6°C° 0 mm 2 mps 753 mmHg 81%
    12:00 +7°C° 0 mm 3 mps 752 mmHg 78%
    13:00 +7°C° 0 mm 3 mps 752 mmHg 74%
    14:00 +7°C° 0 mm 3 mps 752 mmHg 77%
    15:00 +6°C° 0 mm 2 mps 752 mmHg 80%
    16:00 +6°C° 0 mm 2 mps 752 mmHg 82%
    17:00 +5°C° 0 mm 2 mps 752 mmHg 82%
    18:00 +5°C° 0 mm 2 mps 753 mmHg 83%
    19:00 +5°C° 0 mm 2 mps 753 mmHg 83%
    20:00 +5°C° 0 mm 2 mps 753 mmHg 84%
    21:00 +5°C° 0 mm 2 mps 754 mmHg 85%
    22:00 +4°C° 0 mm 2 mps 754 mmHg 86%
    23:00 +4°C° 0 mm 2 mps 755 mmHg 87%

    16 December, Monday

    Time Temperature Precipitation Wind Pressure Humidity
    00:00 +4°C° 0 mm 2 mps 755 mmHg 88%
    01:00 +4°C° 0 mm 2 mps 755 mmHg 89%
    02:00 +4°C° 0 mm 2 mps 756 mmHg 89%
    03:00 +3°C° 0 mm 2 mps 756 mmHg 89%
    04:00 +3°C° 0 mm 2 mps 756 mmHg 90%
    05:00 +3°C° 0 mm 2 mps 757 mmHg 89%
    06:00 +3°C° 0 mm 2 mps 757 mmHg 89%
    07:00 +3°C° 0 mm 2 mps 757 mmHg 89%
    08:00 +4°C° 0 mm 2 mps 757 mmHg 85%
    09:00 +5°C° 0 mm 2 mps 757 mmHg 82%
    10:00 +6°C° 0 mm 2 mps 757 mmHg 78%
    11:00 +7°C° 0 mm 2 mps 757 mmHg 75%
    12:00 +8°C° 0 mm 2 mps 756 mmHg 71%
    13:00 +9°C° 0 mm 2 mps 756 mmHg 68%
    14:00 +8°C° 0 mm 2 mps 756 mmHg 71%
    15:00 +7°C° 0 mm 2 mps 756 mmHg 74%
    16:00 +7°C° 0 mm 2 mps 756 mmHg 76%
    17:00 +7°C° 0 mm 2 mps 755 mmHg 77%
    18:00 +6°C° 0 mm 2 mps 755 mmHg 78%
    19:00 +6°C° 0 mm 2 mps 755 mmHg 78%
    20:00 +6°C° 0 mm 2 mps 755 mmHg 78%
    21:00 +6°C° 0 mm 2 mps 755 mmHg 78%
    22:00 +6°C° 0 mm 2 mps 755 mmHg 78%
    23:00 +6°C° 0 mm 2 mps 755 mmHg 80%
    Show more